Home   Weather   McAllen   Past weeks

Flag for USA Past Weather in McAllen, Texas, USA — Yesterday and Last 2 Weeks

Now
83 °F

Clear.


Feels Like: 85 °F
Forecast: 71 / 90 °F
Wind: 7 mph from East

Location: Miller International Airport

Current Time: Sep 29, 2016 at 10:18:26 PM

Latest Report: Sep 29, 2016 at 9:53 PM


Visibility: 10 mi

Pressure: 30.10 "Hg

Humidity: 59%

Dew Point: 67 °F

Location of McAllenLocation

Past Weather in McAllen — Graph

°F

McAllen Temperature Yesterday

Maximum temperature yesterday: 90 °F (at 4:53 PM)
Minimum temperature yesterday: 72 °F (at 2:53 AM)
Average temperature yesterday: 80 °F

High & Low Weather Summary for the Past Weeks

 TemperatureHumidityPressure
High104 °F (Sep 18, 3:53 PM)90% (Sep 16, 5:53 AM)30.14 "Hg (Sep 16, 5:53 AM)
Low72 °F (Sep 28, 2:53 AM)31% (Sep 21, 2:53 PM)29.80 "Hg (Sep 25, 3:53 PM)
Average87 °F65%29.94 "Hg
* Reported Sep 14 8:53 PM — Sep 29 8:53 PM, McAllen, Weather by CustomWeather, © 2016

Note: Actual official high and low records may vary slightly from our data, if they occured in-between our weather recording intervals... More about our weather records

Advertising

McAllen Weather History for the Previous 24 Hours

Scroll right to see more
 ConditionsComfort  
Time TempWeatherWind HumidityBarometerVisibility
8:53 PM
Thu, Sep 29
85 °FClear.12 mph55%30.09 "Hg10 mi
7:53 PM87 °FClear.12 mph50%30.07 "Hg10 mi
6:53 PM91 °FSunny.13 mph42%30.06 "Hg10 mi
5:53 PM93 °FSunny.13 mph42%30.04 "Hg10 mi
4:53 PM94 °FScattered clouds.9 mph40%30.04 "Hg10 mi
3:53 PM94 °FOvercast.9 mph43%30.05 "Hg10 mi
2:53 PM95 °FBroken clouds.10 mph41%30.06 "Hg10 mi
1:53 PM94 °FScattered clouds.10 mph41%30.09 "Hg10 mi
12:53 PM94 °FScattered clouds.N/A43%30.11 "Hg10 mi
11:53 AM91 °FPartly sunny.10 mph49%30.14 "Hg10 mi
10:53 AM90 °FScattered clouds.8 mph54%30.13 "Hg10 mi
9:53 AM83 °FMostly cloudy.7 mph72%30.12 "Hg10 mi
8:53 AM81 °FMostly cloudy.7 mph77%30.11 "Hg10 mi
7:53 AM78 °FSunny.5 mph82%30.08 "Hg8 mi
6:53 AM77 °FClear.3 mph85%30.07 "Hg10 mi
5:53 AM78 °FClear.3 mph82%30.05 "Hg10 mi
4:53 AM78 °FOvercast.5 mph82%30.05 "Hg10 mi
3:53 AM79 °FOvercast.3 mph79%30.06 "Hg10 mi
2:53 AM79 °FOvercast.No wind79%30.06 "Hg10 mi
1:53 AM79 °FMostly cloudy.3 mph79%30.06 "Hg10 mi
12:53 AM79 °FOvercast.5 mph79%30.07 "Hg10 mi
11:53 PM
Wed, Sep 28
79 °FClear.No wind79%30.06 "Hg10 mi
10:53 PM81 °FClear.5 mph72%30.05 "Hg10 mi
Weather by CustomWeather, © 2016

See weather overviewHow to use our weather pages